| time (UTC) | temp F | wind direction | speed MPH | gust MPH | rain 1hr in | rain 24hr in | rain mn in | humidity % | barometer mb |
| 20260506050624 | 74 | 212 | 6.0 | 9.0 | 0.00 | 0.00 | 0.00 | 37 | 1012.2 |
| 20260506044637 | 75 | 180 | 5.0 | 7.0 | 0.00 | 0.00 | 0.00 | 36 | 1012.3 |
| 20260506043633 | 74 | 209 | 5.0 | 10.0 | 0.00 | 0.00 | 0.00 | 38 | 1012.3 |
| 20260506042716 | 74 | 211 | 3.0 | 5.0 | 0.00 | 0.00 | 0.00 | 37 | 1012.3 |
| 20260506041628 | 75 | 208 | 4.0 | 5.0 | 0.00 | 0.00 | 0.00 | 36 | 1012.2 |
| 20260506040633 | 75 | 218 | 4.0 | 6.0 | 0.00 | 0.00 | 0.00 | 34 | 1012.2 |
| 20260506035623 | 76 | 218 | 4.0 | 6.0 | 0.00 | 0.00 | 0.00 | 32 | 1012.0 |
| 20260506034626 | 76 | 224 | 3.0 | 4.0 | 0.00 | 0.00 | 0.00 | 32 | 1012.0 |
| 20260506033623 | 75 | 209 | 2.0 | 3.0 | 0.00 | 0.00 | 0.00 | 33 | 1011.8 |
| 20260506032619 | 75 | 161 | 2.0 | 3.0 | 0.00 | 0.00 | 0.00 | 33 | 1011.9 |
| 20260506031722 | 76 | 227 | 1.0 | 2.0 | 0.00 | 0.00 | 0.00 | 34 | 1011.7 |
| 20260506030635 | 77 | 0.0 | 1.0 | 0.00 | 0.00 | 0.00 | 33 | 1011.8 | |
| 20260506025633 | 79 | 217 | 2.0 | 2.0 | 0.00 | 0.00 | 0.00 | 33 | 1011.5 |
| 20260506024633 | 79 | 0.0 | 1.0 | 0.00 | 0.00 | 0.00 | 27 | 1011.5 | |
| 20260506023642 | 80 | 21 | 2.0 | 2.0 | 0.00 | 0.00 | 0.00 | 27 | 1011.5 |
| 20260506022636 | 80 | 52 | 3.0 | 3.0 | 0.00 | 0.00 | 0.00 | 26 | 1011.5 |
| 20260506021624 | 81 | 66 | 3.0 | 4.0 | 0.00 | 0.00 | 0.00 | 26 | 1011.5 |
| 20260506020624 | 81 | 28 | 2.0 | 4.0 | 0.00 | 0.00 | 0.00 | 27 | 1011.7 |
| 20260506015622 | 82 | 87 | 1.0 | 2.0 | 0.00 | 0.00 | 0.00 | 25 | 1011.6 |
| 20260506014647 | 82 | 56 | 3.0 | 4.0 | 0.00 | 0.00 | 0.00 | 26 | 1011.5 |
| 20260506013656 | 82 | 29 | 4.0 | 5.0 | 0.00 | 0.00 | 0.00 | 25 | 1011.5 |
| 20260506012633 | 82 | 20 | 5.0 | 6.0 | 0.00 | 0.00 | 0.00 | 24 | 1011.5 |
| 20260506011634 | 82 | 15 | 6.0 | 8.0 | 0.00 | 0.00 | 0.00 | 24 | 1011.5 |
| 20260506010626 | 83 | 9 | 7.0 | 9.0 | 0.00 | 0.00 | 0.00 | 24 | 1011.5 |
| 20260506005647 | 82 | 24 | 3.0 | 4.0 | 0.00 | 0.00 | 0.00 | 24 | 1011.6 |
| 20260506004645 | 82 | 24 | 5.0 | 6.0 | 0.00 | 0.00 | 0.00 | 25 | 1011.8 |
| 20260506003624 | 83 | 16 | 6.0 | 8.0 | 0.00 | 0.00 | 0.00 | 24 | 1011.7 |
| 20260506002618 | 82 | 34 | 4.0 | 8.0 | 0.00 | 0.00 | 0.00 | 25 | 1011.8 |
| 20260506001635 | 82 | 42 | 7.0 | 9.0 | 0.00 | 0.00 | 0.00 | 25 | 1011.7 |
| 20260506000635 | 82 | 43 | 4.0 | 6.0 | 0.00 | 0.00 | 0.00 | 26 | 1011.8 |
| 20260505235632 | 83 | 44 | 7.0 | 10.0 | 0.00 | 0.00 | 0.00 | 24 | 1011.9 |
| 20260505234631 | 82 | 38 | 5.0 | 7.0 | 0.00 | 0.00 | 0.00 | 27 | 1012.0 |
| 20260505233629 | 82 | 326 | 3.0 | 4.0 | 0.00 | 0.00 | 0.00 | 27 | 1012.1 |
| 20260505232627 | 82 | 294 | 2.0 | 6.0 | 0.00 | 0.00 | 0.00 | 26 | 1012.1 |
| 20260505231625 | 82 | 23 | 5.0 | 6.0 | 0.00 | 0.00 | 0.00 | 25 | 1012.3 |
| 20260505230619 | 82 | 29 | 6.0 | 8.0 | 0.00 | 0.00 | 0.00 | 27 | 1012.3 |
| 20260505225617 | 82 | 25 | 9.0 | 15.0 | 0.00 | 0.00 | 0.00 | 27 | 1012.4 |
| 20260505224640 | 82 | 33 | 5.0 | 8.0 | 0.00 | 0.00 | 0.00 | 27 | 1012.5 |
| 20260505223658 | 81 | 54 | 6.0 | 13.0 | 0.00 | 0.00 | 0.00 | 28 | 1012.7 |
| 20260505222630 | 81 | 81 | 6.0 | 8.0 | 0.00 | 0.00 | 0.00 | 29 | 1012.6 |
| 20260505221631 | 82 | 51 | 8.0 | 10.0 | 0.00 | 0.00 | 0.00 | 28 | 1012.6 |
| 20260505220628 | 81 | 27 | 7.0 | 11.0 | 0.00 | 0.00 | 0.00 | 29 | 1012.8 |
| 20260505215630 | 82 | 36 | 8.0 | 12.0 | 0.00 | 0.00 | 0.00 | 29 | 1012.7 |
| 20260505214626 | 81 | 63 | 7.0 | 9.0 | 0.00 | 0.00 | 0.00 | 29 | 1012.9 |
| 20260505213620 | 81 | 65 | 9.0 | 14.0 | 0.00 | 0.00 | 0.00 | 29 | 1013.0 |
| 20260505212619 | 80 | 45 | 6.0 | 12.0 | 0.00 | 0.00 | 0.00 | 30 | 1013.2 |
| 20260505211636 | 81 | 39 | 9.0 | 11.0 | 0.00 | 0.00 | 0.00 | 30 | 1013.0 |
| 20260505210639 | 80 | 70 | 7.0 | 10.0 | 0.00 | 0.00 | 0.00 | 30 | 1013.1 |
| 20260505205634 | 80 | 46 | 7.0 | 13.0 | 0.00 | 0.00 | 0.00 | 31 | 1013.3 |
| 20260505204634 | 80 | 70 | 6.0 | 7.0 | 0.00 | 0.00 | 0.00 | 32 | 1013.4 |
| 20260505203626 | 79 | 66 | 5.0 | 7.0 | 0.00 | 0.00 | 0.00 | 33 | 1013.4 |
| 20260505202627 | 79 | 40 | 9.0 | 14.0 | 0.00 | 0.00 | 0.00 | 33 | 1013.5 |
| 20260505201625 | 80 | 359 | 6.0 | 9.0 | 0.00 | 0.00 | 0.00 | 31 | 1013.6 |
| 20260505200619 | 79 | 14 | 7.0 | 9.0 | 0.00 | 0.00 | 0.00 | 30 | 1013.5 |
| 20260505195620 | 80 | 354 | 11.0 | 15.0 | 0.00 | 0.00 | 0.00 | 30 | 1013.4 |
| 20260505194638 | 78 | 5 | 9.0 | 13.0 | 0.00 | 0.00 | 0.00 | 33 | 1013.7 |
| 20260505193634 | 78 | 18 | 11.0 | 16.0 | 0.00 | 0.00 | 0.00 | 33 | 1013.5 |
| 20260505192640 | 77 | 14 | 5.0 | 8.0 | 0.00 | 0.00 | 0.00 | 35 | 1013.7 |
| 20260505191649 | 76 | 29 | 6.0 | 12.0 | 0.00 | 0.00 | 0.00 | 36 | 1013.5 |
| 20260505190626 | 76 | 6 | 12.0 | 16.0 | 0.00 | 0.00 | 0.00 | 35 | 1013.8 |
| 20260505185631 | 76 | 26 | 9.0 | 13.0 | 0.00 | 0.00 | 0.00 | 36 | 1013.8 |
| 20260505184622 | 75 | 13 | 9.0 | 15.0 | 0.00 | 0.00 | 0.00 | 37 | 1013.6 |
| 20260505183620 | 75 | 13 | 12.0 | 15.0 | 0.00 | 0.00 | 0.00 | 36 | 1013.7 |
| 20260505182622 | 74 | 2 | 6.0 | 9.0 | 0.00 | 0.00 | 0.00 | 37 | 1013.7 |
| 20260505181638 | 73 | 3 | 8.0 | 12.0 | 0.00 | 0.00 | 0.00 | 37 | 1013.8 |
| 20260505180633 | 73 | 21 | 10.0 | 15.0 | 0.00 | 0.00 | 0.00 | 38 | 1013.8 |
| 20260505175635 | 72 | 338 | 7.0 | 9.0 | 0.00 | 0.00 | 0.00 | 38 | 1013.8 |
| 20260505174633 | 72 | 341 | 9.0 | 15.0 | 0.00 | 0.00 | 0.00 | 39 | 1013.9 |
| 20260505173634 | 72 | 348 | 11.0 | 13.0 | 0.00 | 0.00 | 0.00 | 39 | 1013.9 |
| 20260505172630 | 71 | 6 | 11.0 | 13.0 | 0.00 | 0.00 | 0.00 | 39 | 1013.8 |
| 20260505171624 | 71 | 344 | 10.0 | 17.0 | 0.00 | 0.00 | 0.00 | 40 | 1013.8 |
| 20260505170628 | 70 | 355 | 10.0 | 13.0 | 0.00 | 0.00 | 0.00 | 42 | 1013.9 |
| 20260505165621 | 69 | 350 | 7.0 | 10.0 | 0.00 | 0.00 | 0.00 | 43 | 1013.7 |
| 20260505164640 | 69 | 348 | 8.0 | 13.0 | 0.00 | 0.00 | 0.00 | 42 | 1013.6 |
| 20260505163638 | 69 | 349 | 11.0 | 16.0 | 0.00 | 0.00 | 0.00 | 41 | 1013.5 |
| 20260505162632 | 67 | 326 | 14.0 | 18.0 | 0.00 | 0.00 | 0.00 | 44 | 1013.6 |
| 20260505161633 | 67 | 6 | 9.0 | 12.0 | 0.00 | 0.00 | 0.00 | 44 | 1013.5 |
| 20260505160628 | 67 | 345 | 9.0 | 14.0 | 0.00 | 0.00 | 0.00 | 45 | 1013.4 |
| 20260505152618 | 63 | 315 | 9.0 | 12.0 | 0.00 | 0.00 | 0.00 | 54 | 1013.0 |
| 20260505151637 | 64 | 312 | 7.0 | 10.0 | 0.00 | 0.00 | 0.00 | 51 | 1012.9 |
| 20260505150635 | 63 | 333 | 6.0 | 9.0 | 0.00 | 0.00 | 0.00 | 53 | 1012.8 |
| 20260505140625 | 61 | 271 | 2.0 | 2.0 | 0.00 | 0.00 | 0.00 | 59 | 1012.3 |
| 20260505124625 | 56 | 311 | 4.0 | 6.0 | 0.00 | 0.00 | 0.00 | 66 | 1011.2 |
| 20260505123622 | 57 | 341 | 7.0 | 10.0 | 0.00 | 0.00 | 0.00 | 66 | 1011.0 |
| 20260505122622 | 59 | 340 | 5.0 | 7.0 | 0.00 | 0.00 | 0.00 | 62 | 1011.0 |
| 20260505121639 | 59 | 323 | 3.0 | 3.0 | 0.00 | 0.00 | 0.00 | 63 | 1010.8 |
| 20260505120634 | 61 | 321 | 3.0 | 4.0 | 0.00 | 0.00 | 0.00 | 59 | 1010.9 |
| 20260505115633 | 62 | 321 | 5.0 | 6.0 | 0.00 | 0.00 | 0.00 | 57 | 1010.5 |
| 20260505114633 | 61 | 328 | 4.0 | 5.0 | 0.00 | 0.00 | 0.00 | 57 | 1010.5 |
| 20260505113634 | 62 | 306 | 4.0 | 5.0 | 0.00 | 0.00 | 0.00 | 55 | 1010.5 |
| 20260505112649 | 61 | 305 | 3.0 | 3.0 | 0.00 | 0.00 | 0.00 | 55 | 1010.5 |
| 20260505111630 | 61 | 275 | 3.0 | 4.0 | 0.00 | 0.00 | 0.00 | 56 | 1010.3 |
| 20260505110638 | 62 | 289 | 4.0 | 5.0 | 0.00 | 0.00 | 0.00 | 55 | 1010.2 |
| 20260505101630 | 63 | 229 | 3.0 | 5.0 | 0.00 | 0.00 | 0.00 | 53 | 1009.5 |
| 20260505100633 | 64 | 299 | 1.0 | 2.0 | 0.00 | 0.00 | 0.00 | 51 | 1009.5 |
| 20260505095630 | 64 | 263 | 1.0 | 1.0 | 0.00 | 0.00 | 0.00 | 51 | 1009.3 |
| 20260505094623 | 65 | 287 | 1.0 | 2.0 | 0.00 | 0.00 | 0.00 | 48 | 1009.3 |
| 20260505093619 | 64 | 266 | 0.0 | 1.0 | 0.00 | 0.00 | 0.00 | 50 | 1009.3 |
| 20260505092617 | 64 | 252 | 1.0 | 2.0 | 0.00 | 0.00 | 0.00 | 51 | 1009.3 |
| 20260505091637 | 65 | 330 | 3.0 | 3.0 | 0.00 | 0.00 | 0.00 | 49 | 1009.3 |
| 20260505090639 | 64 | 356 | 2.0 | 2.0 | 0.00 | 0.00 | 0.00 | 52 | 1009.2 |
| 20260505085632 | 63 | 271 | 2.0 | 3.0 | 0.00 | 0.00 | 0.00 | 52 | 1009.1 |
| 20260505084630 | 65 | 10 | 3.0 | 4.0 | 0.00 | 0.00 | 0.00 | 49 | 1009.0 |
| 20260505083627 | 65 | 223 | 2.0 | 2.0 | 0.00 | 0.00 | 0.00 | 48 | 1009.0 |
| 20260505082635 | 65 | 327 | 4.0 | 4.0 | 0.00 | 0.00 | 0.00 | 47 | 1009.1 |
| 20260505081626 | 66 | 322 | 4.0 | 5.0 | 0.00 | 0.00 | 0.00 | 45 | 1009.1 |
| 20260505080640 | 67 | 327 | 4.0 | 4.0 | 0.00 | 0.00 | 0.00 | 42 | 1008.9 |
| 20260505075643 | 68 | 313 | 4.0 | 4.0 | 0.00 | 0.00 | 0.00 | 41 | 1009.0 |
| 20260505074636 | 68 | 312 | 5.0 | 7.0 | 0.00 | 0.00 | 0.00 | 42 | 1008.9 |
| 20260505073636 | 68 | 322 | 6.0 | 7.0 | 0.00 | 0.00 | 0.00 | 42 | 1009.0 |
| 20260505072632 | 70 | 287 | 4.0 | 4.0 | 0.00 | 0.00 | 0.00 | 38 | 1008.7 |
| 20260505071630 | 70 | 294 | 3.0 | 3.0 | 0.00 | 0.00 | 0.00 | 37 | 1008.5 |
| 20260505070630 | 70 | 251 | 2.0 | 2.0 | 0.00 | 0.00 | 0.00 | 38 | 1008.5 |
| 20260505065627 | 70 | 211 | 2.0 | 3.0 | 0.00 | 0.00 | 0.00 | 39 | 1008.4 |
| 20260505064627 | 72 | 0.0 | 1.0 | 0.00 | 0.00 | 0.00 | 35 | 1008.3 | |
| 20260505063624 | 73 | 336 | 3.0 | 3.0 | 0.00 | 0.00 | 0.00 | 33 | 1008.1 |
| 20260505062622 | 71 | 326 | 3.0 | 3.0 | 0.00 | 0.00 | 0.00 | 34 | 1008.3 |
| 20260505061638 | 72 | 355 | 2.0 | 2.0 | 0.00 | 0.00 | 0.00 | 33 | 1008.3 |
| 20260505060636 | 72 | 315 | 3.0 | 4.0 | 0.00 | 0.00 | 0.00 | 31 | 1008.0 |